Hourly Weather Lugovye

Today, 17 June, Thursday

Time Temperature Precipitation Wind Pressure Humidity
00:00 +13°C° 0 mm 2 mps 752 mmHg 78%
01:00 +13°C° 0 mm 2 mps 752 mmHg 79%
02:00 +12°C° 0 mm 2 mps 752 mmHg 80%
03:00 +12°C° 0 mm 2 mps 752 mmHg 80%
04:00 +12°C° 0 mm 2 mps 753 mmHg 80%
05:00 +13°C° 0 mm 2 mps 753 mmHg 80%
06:00 +15°C° 0 mm 2 mps 753 mmHg 73%
07:00 +17°C° 0 mm 2 mps 753 mmHg 66%
08:00 +19°C° 0 mm 2 mps 753 mmHg 60%
09:00 +21°C° 0 mm 2 mps 754 mmHg 56%
10:00 +23°C° 0 mm 2 mps 754 mmHg 52%
11:00 +25°C° 0 mm 2 mps 754 mmHg 49%
12:00 +25°C° 0 mm 2 mps 754 mmHg 47%
13:00 +26°C° 0 mm 2 mps 754 mmHg 46%
14:00 +26°C° 0 mm 2 mps 754 mmHg 45%
15:00 +26°C° 0 mm 2 mps 754 mmHg 47%
16:00 +26°C° 0 mm 2 mps 754 mmHg 49%
17:00 +26°C° 0 mm 2 mps 754 mmHg 52%
18:00 +24°C° 0 mm 2 mps 754 mmHg 60%
19:00 +21°C° 0 mm 2 mps 754 mmHg 69%
20:00 +19°C° 0 mm 2 mps 754 mmHg 77%
21:00 +18°C° 0 mm 2 mps 754 mmHg 79%
22:00 +17°C° 0 mm 2 mps 755 mmHg 81%
23:00 +16°C° 0 mm 2 mps 755 mmHg 82%

Tomorrow, 18 June, Friday

Time Temperature Precipitation Wind Pressure Humidity
00:00 +15°C° 0 mm 2 mps 755 mmHg 83%
01:00 +15°C° 0 mm 1 mps 755 mmHg 85%
02:00 +14°C° 0 mm 1 mps 755 mmHg 86%
03:00 +15°C° 0 mm 1 mps 755 mmHg 85%
04:00 +15°C° 0 mm 1 mps 755 mmHg 84%
05:00 +15°C° 0 mm 1 mps 755 mmHg 84%
06:00 +17°C° 0 mm 2 mps 755 mmHg 77%
07:00 +19°C° 0 mm 2 mps 755 mmHg 71%
08:00 +21°C° 0 mm 2 mps 755 mmHg 65%
09:00 +23°C° 0 mm 2 mps 755 mmHg 60%
10:00 +24°C° 0 mm 2 mps 755 mmHg 55%
11:00 +26°C° 0 mm 3 mps 755 mmHg 50%
12:00 +26°C° 0 mm 3 mps 755 mmHg 48%
13:00 +27°C° 0 mm 3 mps 755 mmHg 46%
14:00 +27°C° 0 mm 3 mps 754 mmHg 45%
15:00 +27°C° 0 mm 3 mps 754 mmHg 47%
16:00 +27°C° 0 mm 3 mps 754 mmHg 50%
17:00 +27°C° 0 mm 3 mps 754 mmHg 53%
18:00 +25°C° 0 mm 3 mps 754 mmHg 62%
19:00 +22°C° 0 mm 3 mps 754 mmHg 70%
20:00 +20°C° 0 mm 2 mps 754 mmHg 79%
21:00 +19°C° 0 mm 2 mps 754 mmHg 82%
22:00 +18°C° 0 mm 2 mps 754 mmHg 85%
23:00 +17°C° 0 mm 2 mps 754 mmHg 89%

Day after tomorrow, 19 June, Saturday

Time Temperature Precipitation Wind Pressure Humidity
00:00 +16°C° 0 mm 2 mps 754 mmHg 90%
01:00 +16°C° 0 mm 2 mps 754 mmHg 92%
02:00 +15°C° 0 mm 2 mps 754 mmHg 93%
03:00 +15°C° 0 mm 2 mps 754 mmHg 93%
04:00 +16°C° 0 mm 2 mps 755 mmHg 92%
05:00 +16°C° 0 mm 2 mps 755 mmHg 92%
06:00 +18°C° 0 mm 2 mps 755 mmHg 85%
07:00 +20°C° 0 mm 2 mps 755 mmHg 78%
08:00 +21°C° 0 mm 3 mps 755 mmHg 72%
09:00 +24°C° 0 mm 3 mps 754 mmHg 66%
10:00 +25°C° 0 mm 3 mps 754 mmHg 60%
11:00 +26°C° 0 mm 3 mps 754 mmHg 55%
12:00 +27°C° 0 mm 3 mps 754 mmHg 53%
13:00 +27°C° 0 mm 3 mps 753 mmHg 50%
14:00 +28°C° 0 mm 3 mps 753 mmHg 48%
15:00 +28°C° 0 mm 3 mps 753 mmHg 51%
16:00 +28°C° 0 mm 3 mps 753 mmHg 53%
17:00 +27°C° 0 mm 3 mps 752 mmHg 56%
18:00 +26°C° 0 mm 3 mps 752 mmHg 64%
19:00 +24°C° 0 mm 2 mps 752 mmHg 71%
20:00 +21°C° 0 mm 2 mps 752 mmHg 79%
21:00 +20°C° 0 mm 2 mps 752 mmHg 83%
22:00 +19°C° 0 mm 2 mps 752 mmHg 87%
23:00 +18°C° 0 mm 2 mps 752 mmHg 91%

20 June, Sunday

Time Temperature Precipitation Wind Pressure Humidity
00:00 +18°C° 0 mm 2 mps 752 mmHg 92%
01:00 +18°C° 0 mm 2 mps 752 mmHg 94%
02:00 +17°C° 0 mm 2 mps 752 mmHg 96%
03:00 +18°C° 0 mm 2 mps 752 mmHg 95%
04:00 +18°C° 0 mm 2 mps 752 mmHg 95%
05:00 +18°C° 0 mm 2 mps 752 mmHg 94%
06:00 +20°C° 0 mm 2 mps 752 mmHg 87%
07:00 +21°C° 0 mm 2 mps 752 mmHg 80%
08:00 +24°C° 0 mm 2 mps 752 mmHg 74%
09:00 +25°C° 0 mm 3 mps 752 mmHg 69%
10:00 +26°C° 0 mm 3 mps 752 mmHg 63%
11:00 +27°C° 0 mm 3 mps 752 mmHg 58%
12:00 +28°C° 0 mm 3 mps 752 mmHg 58%
13:00 +28°C° 0 mm 3 mps 751 mmHg 58%
14:00 +28°C° 0 mm 3 mps 751 mmHg 58%
15:00 +28°C° 0.1 mm 3 mps 751 mmHg 59%
16:00 +28°C° 0.1 mm 2 mps 750 mmHg 60%
17:00 +28°C° 0.1 mm 2 mps 750 mmHg 61%
18:00 +26°C° 0.1 mm 2 mps 750 mmHg 68%
19:00 +25°C° 0.1 mm 2 mps 750 mmHg 74%
20:00 +24°C° 0.1 mm 2 mps 750 mmHg 81%
21:00 +23°C° 0 mm 2 mps 750 mmHg 84%
22:00 +21°C° 0 mm 2 mps 750 mmHg 88%
23:00 +20°C° 0 mm 2 mps 750 mmHg 91%

21 June, Monday

Time Temperature Precipitation Wind Pressure Humidity
00:00 +19°C° 0 mm 2 mps 750 mmHg 92%
01:00 +19°C° 0 mm 2 mps 750 mmHg 93%
02:00 +19°C° 0 mm 2 mps 750 mmHg 94%
03:00 +19°C° 0 mm 2 mps 750 mmHg 93%
04:00 +19°C° 0 mm 2 mps 750 mmHg 93%
05:00 +19°C° 0 mm 2 mps 750 mmHg 92%
06:00 +20°C° 0 mm 2 mps 750 mmHg 85%
07:00 +23°C° 0 mm 2 mps 750 mmHg 77%
08:00 +25°C° 0 mm 3 mps 750 mmHg 70%
09:00 +26°C° 0 mm 3 mps 750 mmHg 64%
10:00 +27°C° 0 mm 3 mps 750 mmHg 58%
11:00 +28°C° 0 mm 4 mps 750 mmHg 53%
12:00 +29°C° 0 mm 4 mps 750 mmHg 51%
13:00 +30°C° 0 mm 4 mps 749 mmHg 49%
14:00 +30°C° 0 mm 4 mps 749 mmHg 47%
15:00 +30°C° 0 mm 4 mps 749 mmHg 51%
16:00 +29°C° 0 mm 4 mps 749 mmHg 56%
17:00 +29°C° 0 mm 4 mps 749 mmHg 60%
18:00 +27°C° 0 mm 3 mps 749 mmHg 67%
19:00 +26°C° 0 mm 3 mps 749 mmHg 74%
20:00 +24°C° 0 mm 3 mps 748 mmHg 81%
21:00 +22°C° 0 mm 3 mps 749 mmHg 85%
22:00 +21°C° 0 mm 3 mps 749 mmHg 89%
23:00 +20°C° 0 mm 3 mps 749 mmHg 93%

22 June, Tuesday

Time Temperature Precipitation Wind Pressure Humidity
00:00 +20°C° 0 mm 3 mps 749 mmHg 94%
01:00 +20°C° 0 mm 3 mps 748 mmHg 95%
02:00 +20°C° 0 mm 3 mps 748 mmHg 97%
03:00 +20°C° 0 mm 3 mps 748 mmHg 96%
04:00 +20°C° 0 mm 3 mps 749 mmHg 95%
05:00 +20°C° 0 mm 3 mps 749 mmHg 95%
06:00 +22°C° 0 mm 3 mps 749 mmHg 87%
07:00 +23°C° 0 mm 4 mps 749 mmHg 80%
08:00 +26°C° 0 mm 5 mps 749 mmHg 72%
09:00 +27°C° 0 mm 5 mps 749 mmHg 64%
10:00 +29°C° 0 mm 5 mps 749 mmHg 57%
11:00 +32°C° 0 mm 5 mps 749 mmHg 49%
12:00 +32°C° 0 mm 5 mps 749 mmHg 48%
13:00 +33°C° 0 mm 5 mps 749 mmHg 47%
14:00 +33°C° 0 mm 5 mps 749 mmHg 46%
15:00 +32°C° 0 mm 5 mps 749 mmHg 50%
16:00 +30°C° 0 mm 5 mps 748 mmHg 54%
17:00 +30°C° 0 mm 5 mps 748 mmHg 59%
18:00 +28°C° 0 mm 4 mps 748 mmHg 65%
19:00 +27°C° 0 mm 4 mps 748 mmHg 71%
20:00 +26°C° 0 mm 3 mps 748 mmHg 76%
21:00 +25°C° 0 mm 3 mps 749 mmHg 79%
22:00 +24°C° 0 mm 3 mps 749 mmHg 82%
23:00 +22°C° 0 mm 3 mps 749 mmHg 85%
Show more

We Need Your Consent

Meteoprog and our Service Providers may store and access personal data such as cookies, device identifiers or other similar technologies on your device and process such data to personalise content and ads, as well as provide social media features and to analyse the traffic.

  • Store and/or access information on your device

    Cookies, device identifiers or other information can be stored or accessed on your device for the purposes indicated above.

  • Personalised ads and content, ad and content measurement, audience insights, and products development

    Ads and content can be personalised based on a profile. More data can be added to better personalise ads and content. Ad and content performance can be measured. Insights about the audience who saw the ads and content can be derived. Such data can be used to develop or improve user’s experience, systems and software.

By clicking ‘I Agree’ you will allow the use of indicated cookies, device identifiers, web beacons or other similar technologies. Your settings can be changed in the browser on your device.

For certain purposes, legitimate interests may be relied on, rather than consent. You can read more about this in our Privacy and Cookie Policy.